Regional Weather Roundup
Issued by NWS State College, PA

Home | Current Version | Previous Version | Graphics & Text | Print | Product List | Glossary Off
Versions: 1 2 3 4 5 6 7 8 9 10 11 12 13 14 15 16 17 18 19 20 21 22 23 24 25 26 27 28 29 30 31 32 33 34 35 36 37 38 39 40 41 42 43 44 45 46 47 48 49 50

000
ASUS41 KCTP 160903
RWRCTP

REGIONAL WEATHER ROUNDUP
NATIONAL WEATHER SERVICE STATE COLLEGE PA
500 AM EDT WED APR 16 2014

Note: "fair" indicates few or no clouds below 12,000 feet with no
significant weather and/or obstructions to visibility.

* = STATION THAT DOES NOT REPORT PRECIPITATION /E.G. RAIN...SNOW...ETC/
    THUNDER OR FOG.

PAZ002>004-007>009-013>016-020>023-029>032-161000-
WESTERN PENNSYLVANIA

CITY           SKY/WX    TMP DP  RH WIND       PRES   REMARKS
ERIE           CLEAR     26  13  57 N5        30.31R
MEADVILLE      CLEAR     20  14  77 CALM      30.27R
FRANKLIN*      CLEAR     19  12  73 CALM      30.27R
NEW CASTLE     FAIR      21  16  81 CALM      30.32R
BEAVER COUNTY  NOT AVBL
BUTLER*        CLEAR     23  12  63 CALM      30.29R
PITTSBURGH INT MOCLDY    27  20  75 N5        30.28R
PITTSBURGH     MOCLDY    27  20  75 N5        30.27R
INDIANA*       PTCLDY    21  16  79 N3        30.26R
LATROBE        PTCLDY    28  16  59 NW8       30.28R
WASHINGTON CO* PTCLDY    25  19  80 NW3       30.30R
$$

PAZ004>006-010>012-017>019-024>028-033>037-041-042-045-046-049>053-161000-
CENTRAL PENNSYLVANIA

CITY           SKY/WX    TMP DP  RH WIND       PRES   REMARKS
BRADFORD       CLEAR     16   7  67 NW10      30.18R WCI   4
DUBOIS         CLEAR     20  12  71 NW7       30.20R WCI  11
CLEARFIELD     CLEAR     21  11  65 NW8       30.22R WCI  11
JOHNSTOWN      PTCLDY    19  11  70 NW14      30.17R WCI   6
ALTOONA        CLEAR     24  11  57 N15G31    30.22R WCI  11
STATE COLLEGE    N/A     26   5  42 N14G22    30.20R WCI  14
WILLIAMSPORT   CLEAR     25   8  48 NW13      30.23R WCI  14
SELINSGROVE    CLEAR     28  11  48 N10       30.23R
FT INDIANTOWN  CLEAR     29   9  43 N9        30.20R
CAPITAL CITY   CLEAR     31  11  43 NW15G28   30.22R
HARRISBURG     PTCLDY    31  12  45 NW21G29   30.21R
YORK           CLEAR     30  13  49 NW10G21   30.20R
$$

PAZ038>040-043-044-047-048-054-055-060>062-067>071-161000-
EASTERN PENNSYLVANIA

CITY           SKY/WX    TMP DP  RH WIND       PRES   REMARKS
SCRANTON       CLEAR     24  12  60 NW14G24   30.15R WCI  12
MOUNT POCONO   PTCLDY    21  11  65 NW17G29   30.04R WCI   7
ALLENTOWN      CLEAR     28  14  55 NW10      30.16R
QUAKERTOWN*    SUNNY     28  16  59 CALM      30.15S
READING        CLEAR     30  11  45 N20G28    30.17R
LANCASTER      CLEAR     29  14  53 NW14G21   30.18R
COATESVILLE    NOT AVBL
POTTSTOWN      CLEAR     29  16  58 NW9       30.17R
BLUE BELL      CLEAR     32  18  55 NW9G21    30.14R
DOYLESTOWN     CLEAR     28  16  60 NW12G25   30.12R
WILLOW GROVE   NOT AVBL
NORTH PHILA    CLEAR     33  15  47 NW14G26   30.15R
PHILADELPHIA   PTCLDY    33  13  43 N22G30    30.17R
$$



USA.gov is the U.S. government's official web portal to all federal, state and local government web resources and services.